AA6MV Weather Reports


time (UTC)temp
C
wind
direction
speed
KPH
gust
KPH
rain 1hr
cm
rain 24hr
cm
rain mn
cm
humidity
%
barometer
mb
20260505173010 15 77 0.0 0.0 0.00 0.18 0.18 66 1005.5
20260505171525 14 32 0.0 3.2 0.00 0.18 0.18 67 1005.5
20260505170000 14 95 0.0 0.0 0.00 0.18 0.18 70 1005.4
20260505164601 14 94 0.0 0.0 0.00 0.18 0.18 70 1005.4
20260505163057 14 328 0.0 0.0 0.00 0.18 0.18 73 1005.2
20260505161618 13 51 0.0 0.0 0.00 0.18 0.18 76 1005.4
20260505153054 11 4 0.0 1.6 0.03 0.18 0.18 78 1005.2
20260505151554 11 351 0.0 6.4 0.03 0.18 0.18 79 1004.7
20260505124557 12 247 0.0 0.0 0.03 0.03 0.03 64 1003.4
20260505124506 12 243 0.0 0.0 0.03 0.03 0.03 64 1003.5
20260505123053 12 254 0.0 0.0 0.00 0.00 0.00 64 1003.6
20260505121551 12 291 0.0 0.0 0.00 0.00 0.00 59 1003.7
20260505120045 13 341 0.0 0.0 0.00 0.00 0.00 54 1004.0
20260505114518 13 316 0.0 0.0 0.00 0.00 0.00 52 1004.0
20260505113015 13 352 0.0 0.0 0.00 0.00 0.00 51 1004.2
20260505111517 13 295 0.0 0.0 0.00 0.00 0.00 49 1003.9
20260505101532 13 13 0.0 0.0 0.00 0.00 0.00 44 1004.7
20260505100030 13 13 0.0 0.0 0.00 0.00 0.00 43 1004.8
20260505094642 14 13 0.0 0.0 0.00 0.00 0.00 42 1004.9
20260505093032 14 12 0.0 0.0 0.00 0.00 0.00 41 1005.1
20260505091529 14 66 0.0 0.0 0.00 0.00 0.00 42 1005.3
20260505090137 14 47 0.0 0.0 0.00 0.00 0.00 42 1005.2
20260505084526 14 6 0.0 0.0 0.00 0.00 0.00 42 1005.5
20260505083146 14 7 0.0 0.0 0.00 0.00 0.00 42 1005.6
20260505081539 13 12 0.0 0.0 0.00 0.00 0.00 44 1006.0
20260505080038 13 266 0.0 0.0 0.00 0.00 0.00 46 1005.5
20260505074642 13 266 0.0 0.0 0.00 0.00 0.00 47 1006.0
20260505073111 13 265 0.0 0.0 0.00 0.00 0.00 48 1006.3
20260505071600 14 122 0.0 0.0 0.00 0.00 0.00 46 1006.1
20260505070052 14 122 0.0 0.0 0.00 0.00 0.00 44 1006.0
20260505064547 14 122 0.0 0.0 0.00 0.00 0.00 42 1006.1
20260505063153 15 122 0.0 0.0 0.00 0.00 0.00 42 1006.0
20260505061550 15 122 0.0 0.0 0.00 0.00 0.00 42 1006.2
20260505060022 15 122 0.0 0.0 0.00 0.00 0.00 41 1006.1
20260505054535 15 122 0.0 0.0 0.00 0.00 0.00 40 1006.0
20260505053046 15 122 0.0 0.0 0.00 0.00 0.00 39 1006.1
20260505051520 15 98 0.0 0.0 0.00 0.00 0.00 39 1006.4
20260505041522 16 117 0.0 4.8 0.00 0.00 0.00 36 1005.9
20260505040021 16 120 0.0 3.2 0.00 0.00 0.00 36 1005.5
20260505034515 16 110 0.0 3.2 0.00 0.00 0.00 35 1005.8
20260505031548 17 103 0.0 3.2 0.00 0.00 0.00 32 1005.2
20260505030033 17 108 0.0 1.6 0.00 0.00 0.00 31 1004.9
20260505024535 18 111 0.0 9.7 0.00 0.00 0.00 30 1004.7
20260505021642 20 37 0.0 0.0 0.00 0.00 0.00 29 1004.0
20260505020034 20 40 0.0 0.0 0.00 0.00 0.00 28 1003.8
20260505014528 21 32 0.0 12.9 0.00 0.00 0.00 28 1004.0
20260505013019 21 32 6.4 16.1 0.00 0.00 0.00 27 1004.1
20260505011530 22 44 6.4 16.1 0.00 0.00 0.00 27 1003.9
20260505004537 21 1 4.8 19.3 0.00 0.00 0.00 24 1004.1
20260505003016 21 37 8.0 20.9 0.00 0.00 0.00 23 1004.4
20260505001517 22 67 9.7 24.1 0.00 0.00 0.00 23 1004.2
20260504234521 22 30 12.9 22.5 0.00 0.00 0.00 20 1004.4
20260504233030 22 43 6.4 17.7 0.00 0.00 0.00 22 1004.3
20260504231518 22 36 9.7 19.3 0.00 0.00 0.00 22 1004.3
20260504224545 22 19 9.7 29.0 0.00 0.00 0.00 20 1004.1
20260504223043 22 42 12.9 25.7 0.00 0.00 0.00 19 1004.2
20260504221558 22 25 11.3 22.5 0.00 0.00 0.00 20 1004.0
20260504220047 22 23 12.9 24.1 0.00 0.00 0.00 19 1004.5
20260504214655 23 32 12.9 30.6 0.00 0.00 0.00 20 1004.6
20260504213147 23 13 14.5 32.2 0.00 0.00 0.00 20 1004.6
20260504211507 23 39 16.1 25.7 0.00 0.00 0.00 21 1004.6
20260504210007 23 358 3.2 19.3 0.00 0.00 0.00 23 1004.9
20260504204504 22 352 3.2 16.1 0.00 0.00 0.00 23 1005.3
20260504203005 22 1 3.2 17.7 0.00 0.00 0.00 22 1005.4
20260504201601 22 17 6.4 19.3 0.00 0.00 0.00 21 1005.4
20260504200058 22 59 4.8 20.9 0.00 0.00 0.00 22 1005.8
20260504194615 22 15 8.0 27.4 0.00 0.00 0.00 21 1005.8
20260504191608 22 46 6.4 24.1 0.00 0.00 0.00 19 1005.9
20260504190117 23 39 9.7 22.5 0.00 0.00 0.00 21 1005.9
20260504184554 22 341 3.2 22.5 0.00 0.00 0.00 28 1006.1
20260504183050 22 345 6.4 14.5 0.00 0.00 0.00 29 1006.2
20260504181602 21 330 9.7 16.1 0.00 0.00 0.00 30 1006.2
20260504181510 21 316 9.7 16.1 0.00 0.00 0.00 30 1006.2
20260504180111 21 30 0.0 8.0 0.00 0.00 0.00 32 1006.4
20260504174555 21 34 0.0 9.7 0.00 0.00 0.00 33 1006.6